Springfield, IL

12:21 PM CDT on September 26, 2017 (GMT -0500)
Capital

Weather History for KSPI - January, 2014

Change the Weather History Date:

Friday, January 24, 2014

  Actual Average Record
Temperature  
Mean Temperature 16 °F 27 °F  
Max Temperature 35 °F 35 °F 71 °F (1950)
Min Temperature -3 °F 19 °F -13 °F (1894)
Degree Days  
Heating Degree Days 49 38  
Month to date heating degree days 1044 919  
Since 1 July heating degree days 3390 3059  
Cooling Degree Days 0 0  
Month to date cooling degree days 0 0  
Year to date cooling degree days 0 0  
Moisture  
Dew Point 3 °F    
Average Humidity 52    
Maximum Humidity 72    
Minimum Humidity 32    
Precipitation  
Precipitation T in 0.05 in 0.74 in (1928)
Month to date precipitation 2.11 1.44  
Year to date precipitation 2.11 1.44  
Snow  
Snow T in 0.20 in 5.50 in (1894)
Month to date snowfall 15.9 4.9  
Since 1 July snowfall 24.8 11.1  
Snow Depth 1.00 in    
Sea Level Pressure  
Sea Level Pressure 30.19 in    
Wind  
Wind Speed 15 mph (SSW)    
Max Wind Speed 33 mph    
Max Gust Speed 45 mph    
Visibility 10 miles    
Events Snow    
T = Trace of Precipitation, MM = Missing Value Source: NWS Daily Summary

Daily Weather History Graph

Daily Weather History Graph

Search for Another Location

Airport or City:

Trip Planner

Search our weather history database for the weather conditions in past years. The results will help you decide how hot, cold, wet, or windy it might be!

Date:

Astronomy

Jan. 24, 2014 Rise Set
Actual Time 7:13 AM CST 5:08 PM CST
Civil Twilight 6:44 AM CST 5:37 PM CST
Nautical Twilight 6:11 AM CST 6:10 PM CST
Astronomical Twilight 5:39 AM CST 6:42 PM CST
Moon 12:40 AM CST (1/24) 11:27 AM CST (1/24)
Length of Visible Light 10h 53m
Length of Day
9h 55m
Last Quarter, 44% of the Moon is Illuminated
Jan 24
Last Quarter
Jan 30
New
Feb 6
First Quarter
Feb 14
Full
Feb 22
Last Quarter

Hourly Weather History & Observations

Time (CST) Temp. Windchill Dew Point Humidity Pressure Visibility Wind Dir Wind Speed Gust Speed Precip Events Conditions
12:52 AM -0.0 °F -11.6 °F -8.0 °F 69% 30.68 in 10.0 mi SW 5.8 mph - N/A   Clear
1:52 AM 1.9 °F -7.6 °F -7.1 °F 66% 30.66 in 10.0 mi SW 4.6 mph - N/A   Clear
2:52 AM 1.9 °F -7.6 °F -7.1 °F 66% 30.63 in 10.0 mi SSW 4.6 mph - N/A   Clear
3:52 AM 3.0 °F -11.5 °F -6.0 °F 66% 30.59 in 10.0 mi SSW 9.2 mph - N/A   Clear
4:52 AM 3.9 °F -12.2 °F -6.0 °F 64% 30.56 in 10.0 mi SSW 11.5 mph - N/A   Clear
5:52 AM 3.9 °F -12.2 °F -5.1 °F 66% 30.53 in 10.0 mi SSW 11.5 mph - N/A   Clear
6:52 AM 5.0 °F -11.6 °F -5.1 °F 63% 30.49 in 10.0 mi SSW 12.7 mph - N/A   Clear
7:52 AM 7.0 °F -10.4 °F -4.0 °F 61% 30.47 in 10.0 mi SSW 15.0 mph 21.9 mph N/A   Clear
8:52 AM 10.9 °F -6.5 °F -2.0 °F 56% 30.42 in 10.0 mi SSW 17.3 mph 24.2 mph N/A   Clear
9:52 AM 15.1 °F -2.5 °F -0.0 °F 51% 30.37 in 10.0 mi SSW 20.7 mph 27.6 mph N/A   Clear
10:52 AM 19.0 °F 4.0 °F 1.0 °F 46% 30.33 in 10.0 mi SSW 17.3 mph 27.6 mph N/A   Clear
11:52 AM 19.9 °F 2.8 °F -0.0 °F 42% 30.20 in 10.0 mi SSW 24.2 mph 33.4 mph N/A   Clear
12:52 PM 23.0 °F 7.2 °F 1.0 °F 39% 30.12 in 10.0 mi SSW 23.0 mph 35.7 mph N/A   Clear
1:52 PM 25.0 °F 8.6 °F 1.9 °F 37% 30.03 in 10.0 mi SSW 27.6 mph 40.3 mph N/A   Clear
2:52 PM 28.0 °F 14.3 °F 5.0 °F 38% 29.98 in 10.0 mi SW 21.9 mph 31.1 mph N/A   Clear
3:52 PM 30.0 °F 18.7 °F 5.0 °F 35% 29.93 in 10.0 mi SSW 16.1 mph 27.6 mph N/A   Clear
4:52 PM 30.0 °F 20.0 °F 5.0 °F 35% 29.92 in 10.0 mi SSW 12.7 mph 24.2 mph N/A   Scattered Clouds
5:52 PM 30.0 °F 20.0 °F 7.0 °F 38% 29.91 in 10.0 mi SSW 12.7 mph 19.6 mph N/A   Overcast
6:52 PM 30.9 °F 20.7 °F 9.0 °F 40% 29.87 in 10.0 mi SSW 13.8 mph 26.5 mph N/A   Overcast
7:52 PM 32.0 °F 23.0 °F 10.9 °F 42% 29.84 in 10.0 mi SSW 11.5 mph - N/A   Overcast
8:52 PM 33.1 °F 21.5 °F 17.1 °F 52% 29.81 in 10.0 mi WSW 19.6 mph 29.9 mph 0.00 in   Overcast
9:52 PM 33.1 °F 21.9 °F 19.9 °F 59% 29.77 in 10.0 mi SW 18.4 mph 29.9 mph 0.00 in Snow Light Snow
10:52 PM 34.0 °F 24.6 °F 17.1 °F 50% 29.72 in 10.0 mi SW 13.8 mph 24.2 mph 0.00 in   Overcast
11:52 PM 35.1 °F 25.9 °F 16.0 °F 46% 29.67 in 10.0 mi SW 13.8 mph 23.0 mph 0.00 in   Overcast